UTOFI Weather Reports


time (UTC)temp
F
wind
direction
speed
knots
gust
knots
rain 1hr
in
rain 24hr
in
rain mn
in
humidity
%
barometer
mb
20260508084733 50 50 2.6 6.1 0.00 0.00 0.00 41 1027.8
20260508082733 48 42 3.5 5.2 0.00 0.00 0.00 51 1027.7
20260508080734 49 60 3.5 5.2 0.00 0.00 0.00 53 1027.8
20260508074734 48 35 3.5 5.2 0.00 0.00 0.00 53 1027.6
20260508072733 47 58 2.6 5.2 0.00 0.00 0.00 51 1027.4
20260508070734 47 28 3.5 5.2 0.00 0.00 0.00 61 1027.2
20260508064733 46 21 3.5 5.2 0.00 0.00 0.00 61 1027.0
20260508062733 46 40 3.5 5.2 0.00 0.00 0.00 62 1026.9
20260508060733 45 36 3.5 5.2 0.00 0.00 0.00 63 1026.7
20260508054734 44 52 3.5 6.1 0.00 0.00 0.00 69 1026.4
20260508052734 44 44 4.3 6.1 0.00 0.00 0.00 71 1026.1
20260508050733 44 46 6.1 7.0 0.00 0.00 0.00 72 1025.8
20260508044734 44 35 5.2 7.0 0.00 0.00 0.00 73 1025.6
20260508042733 43 32 5.2 7.8 0.00 0.00 0.00 75 1025.4
20260508040733 43 25 5.2 7.0 0.00 0.00 0.00 77 1025.2
20260508034733 42 12 5.2 7.0 0.00 0.00 0.00 80 1025.2
20260508032733 41 12 5.2 7.0 0.00 0.00 0.00 81 1025.0
20260508030734 41 11 6.1 8.7 0.00 0.00 0.00 82 1024.7
20260508022731 40 14 8.7 10.4 0.00 0.00 0.00 85 1024.1
20260508020733 41 14 9.6 11.3 0.00 0.00 0.00 82 1023.9
20260508014733 41 14 10.4 13.0 0.00 0.00 0.00 79 1023.7
20260508012732 42 7 10.4 13.0 0.00 0.00 0.00 75 1023.5
20260508010733 42 5 10.4 13.0 0.00 0.00 0.00 75 1023.3
20260508004733 42 358 9.6 11.3 0.00 0.00 0.00 72 1023.1
20260508002733 42 344 7.0 9.6 0.00 0.00 0.00 74 1023.0
20260508000734 42 343 7.0 8.7 0.00 0.00 0.00 71 1022.7
20260507234733 42 350 7.8 9.6 0.00 0.00 0.00 70 1022.5
20260507232732 42 353 8.7 11.3 0.00 0.00 0.00 68 1022.4
20260507230733 43 360 10.4 13.0 0.00 0.00 0.00 60 1022.2
20260507224731 43 354 7.8 10.4 0.00 0.00 0.00 62 1022.0
20260507222732 43 356 8.7 11.3 0.00 0.00 0.00 57 1021.9
20260507220732 44 355 8.7 12.2 0.00 0.00 0.00 57 1021.7
20260507214732 44 351 6.1 10.4 0.00 0.00 0.00 57 1021.5
20260507212731 43 343 5.2 7.8 0.00 0.00 0.00 53 1021.2
20260507210731 44 356 7.8 10.4 0.00 0.00 0.00 50 1021.1
20260507204732 45 350 10.4 13.0 0.00 0.00 0.00 48 1020.7
20260507202731 45 352 9.6 12.2 0.00 0.00 0.00 46 1020.5
20260507200732 45 352 9.6 13.0 0.00 0.00 0.00 52 1020.2
20260507194731 45 349 8.7 12.2 0.00 0.00 0.00 53 1019.9
20260507192731 45 350 8.7 11.3 0.00 0.00 0.00 61 1019.7
20260507190730 45 344 8.7 11.3 0.00 0.00 0.00 60 1019.4
20260507184731 46 342 10.4 13.0 0.00 0.00 0.00 53 1019.2
20260507182730 46 341 9.6 13.9 0.00 0.00 0.00 52 1019.0
20260507180730 47 333 8.7 11.3 0.00 0.00 0.00 52 1018.8
20260507174731 48 340 8.7 11.3 0.00 0.00 0.00 45 1018.7
20260507172730 48 341 8.7 11.3 0.00 0.00 0.00 45 1018.6
20260507170730 48 340 7.0 11.3 0.00 0.00 0.00 54 1018.4
20260507164731 48 337 8.7 11.3 0.00 0.00 0.00 51 1018.5
20260507162731 50 331 10.4 14.8 0.00 0.00 0.00 41 1018.4
20260507160731 50 334 8.7 12.2 0.00 0.00 0.00 41 1018.2
20260507154730 50 334 8.7 11.3 0.00 0.00 0.00 41 1018.1
20260507152730 51 332 8.7 12.2 0.00 0.00 0.00 41 1018.1
20260507150732 50 339 7.0 9.6 0.00 0.00 0.00 39 1017.9
20260507144731 51 339 6.1 8.7 0.00 0.00 0.00 33 1017.8
20260507142731 52 340 7.0 9.6 0.00 0.00 0.00 35 1017.7
20260507140730 51 334 7.8 10.4 0.00 0.00 0.00 43 1017.6
20260507134731 50 330 8.7 11.3 0.00 0.00 0.00 47 1017.6
20260507132730 51 332 9.6 11.3 0.00 0.00 0.00 41 1017.5
20260507130731 52 315 7.0 11.3 0.00 0.00 0.00 46 1017.5
20260507124729 52 322 6.1 8.7 0.00 0.00 0.00 39 1017.3
20260507122729 50 280 6.1 7.8 0.00 0.00 0.00 48 1017.3
20260507120730 48 269 3.5 5.2 0.00 0.00 0.00 50 1017.2
20260507114730 49 188 3.5 6.1 0.00 0.00 0.00 47 1017.2
20260507112729 50 360 3.5 6.1 0.00 0.00 0.00 39 1017.1
20260507110729 49 4 4.3 6.1 0.00 0.00 0.00 37 1017.1
20260507104728 49 24 4.3 7.0 0.00 0.00 0.00 40 1017.0
20260507102729 48 55 5.2 7.0 0.00 0.00 0.00 41 1016.9
20260507100729 47 49 5.2 7.0 0.00 0.00 0.00 45 1016.7
20260507094729 48 55 5.2 7.8 0.00 0.00 0.00 48 1016.6
20260507092729 48 74 6.1 7.8 0.00 0.00 0.00 51 1016.5
20260507090729 49 81 6.1 7.8 0.00 0.00 0.00 50 1016.3